Time,TemperatureF,DewpointF,PressureIn,WindDirection,WindDirectionDegrees,WindSpeedMPH,WindSpeedGustMPH,Humidity,HourlyPrecipIn,Conditions,Clouds,dailyrainin,SoftwareType,DateUTC
2013-05-11 00:02:00,50.0,22.0,30.25,North,-999,-999.0,-999.0,33,-99.99,,,-99.99,,2013-05-11 06:02:00,
2013-05-11 00:12:00,50.0,22.0,30.25,North,-999,-999.0,-999.0,33,-99.99,,,-99.99,,2013-05-11 06:12:00,
2013-05-11 00:21:00,49.0,23.0,30.25,North,-999,-999.0,-999.0,35,-99.99,,,-99.99,,2013-05-11 06:21:00,
2013-05-11 00:32:00,49.0,24.0,30.25,North,-999,-999.0,-999.0,37,-99.99,,,-99.99,,2013-05-11 06:32:00,
2013-05-11 00:42:00,49.0,24.0,30.25,North,-999,-999.0,-999.0,37,-99.99,,,-99.99,,2013-05-11 06:42:00,
2013-05-11 00:52:00,49.0,23.0,30.26,North,-999,-999.0,-999.0,35,-99.99,,,-99.99,,2013-05-11 06:52:00,
2013-05-11 01:01:00,49.0,23.0,30.26,North,-999,-999.0,-999.0,36,-99.99,,,-99.99,,2013-05-11 07:01:00,
2013-05-11 01:11:00,49.0,23.0,30.26,North,-999,-999.0,-999.0,36,-99.99,,,-99.99,,2013-05-11 07:11:00,
2013-05-11 01:21:00,47.0,23.0,30.26,North,-999,-999.0,-999.0,39,-99.99,,,-99.99,,2013-05-11 07:21:00,
2013-05-11 01:31:00,46.0,23.0,30.27,North,-999,-999.0,-999.0,40,-99.99,,,-99.99,,2013-05-11 07:31:00,
2013-05-11 01:42:00,46.0,23.0,30.27,North,-999,-999.0,-999.0,40,-99.99,,,-99.99,,2013-05-11 07:42:00,
2013-05-11 01:52:00,46.0,23.0,30.27,North,-999,-999.0,-999.0,40,-99.99,,,-99.99,,2013-05-11 07:52:00,
2013-05-11 02:01:00,45.0,24.0,30.28,North,-999,-999.0,-999.0,43,-99.99,,,-99.99,,2013-05-11 08:01:00,
2013-05-11 02:12:00,45.0,24.0,30.28,North,-999,-999.0,-999.0,43,-99.99,,,-99.99,,2013-05-11 08:12:00,
2013-05-11 02:21:00,45.0,25.0,30.28,North,-999,-999.0,-999.0,45,-99.99,,,-99.99,,2013-05-11 08:21:00,
2013-05-11 02:31:00,45.0,26.0,30.28,North,-999,-999.0,-999.0,47,-99.99,,,-99.99,,2013-05-11 08:31:00,
2013-05-11 02:42:00,45.0,26.0,30.28,North,-999,-999.0,-999.0,47,-99.99,,,-99.99,,2013-05-11 08:42:00,
2013-05-11 02:52:00,43.0,26.0,30.28,North,-999,-999.0,-999.0,50,-99.99,,,-99.99,,2013-05-11 08:52:00,
2013-05-11 03:01:00,41.0,26.0,30.28,North,-999,-999.0,-999.0,54,-99.99,,,-99.99,,2013-05-11 09:01:00,
2013-05-11 03:11:00,41.0,26.0,30.28,North,-999,-999.0,-999.0,54,-99.99,,,-99.99,,2013-05-11 09:11:00,
2013-05-11 03:21:00,42.0,25.0,30.28,North,-999,-999.0,-999.0,51,-99.99,,,-99.99,,2013-05-11 09:21:00,
2013-05-11 03:32:00,42.0,26.0,30.28,North,-999,-999.0,-999.0,52,-99.99,,,-99.99,,2013-05-11 09:32:00,
2013-05-11 03:42:00,42.0,26.0,30.28,North,-999,-999.0,-999.0,52,-99.99,,,-99.99,,2013-05-11 09:42:00,
2013-05-11 03:52:00,42.0,26.0,30.29,North,-999,-999.0,-999.0,52,-99.99,,,-99.99,,2013-05-11 09:52:00,
2013-05-11 04:03:00,41.0,25.0,30.29,North,-999,-999.0,-999.0,52,-99.99,,,-99.99,,2013-05-11 10:03:00,
2013-05-11 04:12:00,41.0,25.0,30.29,North,-999,-999.0,-999.0,52,-99.99,,,-99.99,,2013-05-11 10:12:00,
2013-05-11 04:22:00,41.0,26.0,30.29,North,-999,-999.0,-999.0,55,-99.99,,,-99.99,,2013-05-11 10:22:00,
2013-05-11 04:32:00,41.0,26.0,30.29,North,-999,-999.0,-999.0,54,-99.99,,,-99.99,,2013-05-11 10:32:00,
2013-05-11 04:42:00,41.0,26.0,30.29,North,-999,-999.0,-999.0,54,-99.99,,,-99.99,,2013-05-11 10:42:00,
2013-05-11 04:52:00,40.0,26.0,30.29,North,-999,-999.0,-999.0,56,-99.99,,,-99.99,,2013-05-11 10:52:00,
2013-05-11 05:02:00,40.0,26.0,30.29,North,-999,-999.0,-999.0,57,-99.99,,,-99.99,,2013-05-11 11:02:00,
2013-05-11 05:11:00,40.0,26.0,30.29,North,-999,-999.0,-999.0,57,-99.99,,,-99.99,,2013-05-11 11:11:00,
2013-05-11 05:21:00,39.0,26.0,30.29,North,-999,-999.0,-999.0,59,-99.99,,,-99.99,,2013-05-11 11:21:00,
2013-05-11 05:31:00,39.0,27.0,30.29,North,-999,-999.0,-999.0,61,-99.99,,,-99.99,,2013-05-11 11:31:00,
2013-05-11 05:42:00,39.0,27.0,30.29,North,-999,-999.0,-999.0,61,-99.99,,,-99.99,,2013-05-11 11:42:00,
2013-05-11 05:52:00,38.0,26.0,30.29,North,-999,-999.0,-999.0,62,-99.99,,,-99.99,,2013-05-11 11:52:00,
2013-05-11 06:01:00,38.0,27.0,30.29,North,-999,-999.0,-999.0,63,-99.99,,,-99.99,,2013-05-11 12:01:00,
2013-05-11 06:11:00,38.0,27.0,30.29,North,-999,-999.0,-999.0,63,-99.99,,,-99.99,,2013-05-11 12:11:00,
2013-05-11 06:21:00,38.0,27.0,30.29,North,-999,-999.0,-999.0,64,-99.99,,,-99.99,,2013-05-11 12:21:00,
2013-05-11 06:32:00,38.0,27.0,30.29,North,-999,-999.0,-999.0,64,-99.99,,,-99.99,,2013-05-11 12:32:00,
2013-05-11 06:42:00,38.0,27.0,30.29,North,-999,-999.0,-999.0,64,-99.99,,,-99.99,,2013-05-11 12:42:00,
2013-05-11 06:52:00,37.0,27.0,30.29,North,-999,-999.0,-999.0,67,-99.99,,,-99.99,,2013-05-11 12:52:00,
2013-05-11 07:01:00,36.0,27.0,30.29,North,-999,-999.0,-999.0,69,-99.99,,,-99.99,,2013-05-11 13:01:00,
2013-05-11 07:11:00,36.0,27.0,30.29,North,-999,-999.0,-999.0,69,-99.99,,,-99.99,,2013-05-11 13:11:00,
2013-05-11 07:21:00,37.0,27.0,30.30,North,-999,-999.0,-999.0,66,-99.99,,,-99.99,,2013-05-11 13:21:00,
2013-05-11 07:31:00,40.0,28.0,30.30,North,-999,-999.0,-999.0,61,-99.99,,,-99.99,,2013-05-11 13:31:00,
2013-05-11 07:41:00,40.0,28.0,30.30,North,-999,-999.0,-999.0,61,-99.99,,,-99.99,,2013-05-11 13:41:00,
2013-05-11 07:52:00,39.0,27.0,30.30,North,-999,-999.0,-999.0,62,-99.99,,,-99.99,,2013-05-11 13:52:00,
2013-05-11 08:02:00,40.0,28.0,30.30,North,-999,-999.0,-999.0,62,-99.99,,,-99.99,,2013-05-11 14:02:00,
2013-05-11 08:11:00,40.0,28.0,30.30,North,-999,-999.0,-999.0,62,-99.99,,,-99.99,,2013-05-11 14:11:00,
2013-05-11 08:21:00,40.0,28.0,30.30,North,-999,-999.0,-999.0,63,-99.99,,,-99.99,,2013-05-11 14:21:00,
2013-05-11 08:32:00,40.0,28.0,30.30,North,-999,-999.0,-999.0,61,-99.99,,,-99.99,,2013-05-11 14:32:00,
2013-05-11 08:41:00,40.0,28.0,30.30,North,-999,-999.0,-999.0,61,-99.99,,,-99.99,,2013-05-11 14:41:00,
2013-05-11 08:52:00,41.0,29.0,30.30,North,-999,-999.0,-999.0,62,-99.99,,,-99.99,,2013-05-11 14:52:00,
2013-05-11 09:01:00,41.0,29.0,30.30,North,-999,-999.0,-999.0,61,-99.99,,,-99.99,,2013-05-11 15:01:00,
2013-05-11 09:11:00,41.0,29.0,30.30,North,-999,-999.0,-999.0,61,-99.99,,,-99.99,,2013-05-11 15:11:00,
2013-05-11 09:21:00,42.0,30.0,30.30,North,-999,-999.0,-999.0,61,-99.99,,,-99.99,,2013-05-11 15:21:00,
2013-05-11 09:32:00,42.0,30.0,30.30,North,-999,-999.0,-999.0,61,-99.99,,,-99.99,,2013-05-11 15:32:00,
2013-05-11 09:42:00,42.0,30.0,30.30,North,-999,-999.0,-999.0,61,-99.99,,,-99.99,,2013-05-11 15:42:00,
2013-05-11 09:53:00,44.0,29.0,30.29,North,-999,-999.0,-999.0,56,-99.99,,,-99.99,,2013-05-11 15:53:00,
2013-05-11 10:02:00,46.0,30.0,30.29,North,-999,-999.0,-999.0,53,-99.99,,,-99.99,,2013-05-11 16:02:00,
2013-05-11 10:12:00,46.0,30.0,30.29,North,-999,-999.0,-999.0,53,-99.99,,,-99.99,,2013-05-11 16:12:00,
2013-05-11 10:22:00,47.0,30.0,30.29,North,-999,-999.0,-999.0,51,-99.99,,,-99.99,,2013-05-11 16:22:00,
2013-05-11 10:33:00,49.0,30.0,30.28,North,-999,-999.0,-999.0,48,-99.99,,,-99.99,,2013-05-11 16:33:00,
2013-05-11 10:42:00,49.0,30.0,30.28,North,-999,-999.0,-999.0,48,-99.99,,,-99.99,,2013-05-11 16:42:00,
2013-05-11 10:52:00,51.0,30.0,30.28,North,-999,-999.0,-999.0,44,-99.99,,,-99.99,,2013-05-11 16:52:00,
2013-05-11 11:02:00,54.0,31.0,30.28,North,-999,-999.0,-999.0,41,-99.99,,,-99.99,,2013-05-11 17:02:00,
2013-05-11 11:12:00,54.0,31.0,30.28,North,-999,-999.0,-999.0,41,-99.99,,,-99.99,,2013-05-11 17:12:00,
2013-05-11 11:22:00,55.0,31.0,30.28,North,-999,-999.0,-999.0,40,-99.99,,,-99.99,,2013-05-11 17:22:00,
2013-05-11 11:31:00,55.0,31.0,30.28,North,-999,-999.0,-999.0,40,-99.99,,,-99.99,,2013-05-11 17:31:00,
2013-05-11 11:41:00,55.0,31.0,30.28,North,-999,-999.0,-999.0,40,-99.99,,,-99.99,,2013-05-11 17:41:00,
2013-05-11 11:52:00,58.0,31.0,30.27,North,-999,-999.0,-999.0,35,-99.99,,,-99.99,,2013-05-11 17:52:00,
2013-05-11 12:01:00,59.0,29.0,30.27,North,-999,-999.0,-999.0,32,-99.99,,,-99.99,,2013-05-11 18:01:00,
2013-05-11 12:11:00,59.0,29.0,30.27,North,-999,-999.0,-999.0,32,-99.99,,,-99.99,,2013-05-11 18:11:00,
2013-05-11 12:21:00,61.0,29.0,30.26,North,-999,-999.0,-999.0,30,-99.99,,,-99.99,,2013-05-11 18:21:00,
2013-05-11 12:32:00,62.0,30.0,30.26,North,-999,-999.0,-999.0,30,-99.99,,,-99.99,,2013-05-11 18:32:00,
2013-05-11 12:41:00,62.0,30.0,30.26,North,-999,-999.0,-999.0,30,-99.99,,,-99.99,,2013-05-11 18:41:00,
2013-05-11 12:52:00,62.0,30.0,30.26,North,-999,-999.0,-999.0,30,-99.99,,,-99.99,,2013-05-11 18:52:00,
2013-05-11 13:02:00,63.0,30.0,30.25,North,-999,-999.0,-999.0,29,-99.99,,,-99.99,,2013-05-11 19:02:00,
2013-05-11 13:11:00,63.0,30.0,30.25,North,-999,-999.0,-999.0,29,-99.99,,,-99.99,,2013-05-11 19:11:00,
2013-05-11 13:21:00,64.0,30.0,30.24,North,-999,-999.0,-999.0,28,-99.99,,,-99.99,,2013-05-11 19:21:00,
2013-05-11 13:32:00,65.0,30.0,30.24,North,-999,-999.0,-999.0,27,-99.99,,,-99.99,,2013-05-11 19:32:00,
2013-05-11 13:41:00,65.0,30.0,30.24,North,-999,-999.0,-999.0,27,-99.99,,,-99.99,,2013-05-11 19:41:00,
2013-05-11 13:52:00,65.0,29.0,30.23,North,-999,-999.0,-999.0,26,-99.99,,,-99.99,,2013-05-11 19:52:00,
2013-05-11 14:01:00,64.0,27.0,30.22,North,-999,-999.0,-999.0,25,-99.99,,,-99.99,,2013-05-11 20:01:00,
2013-05-11 14:12:00,64.0,27.0,30.22,North,-999,-999.0,-999.0,25,-99.99,,,-99.99,,2013-05-11 20:12:00,
2013-05-11 14:22:00,66.0,27.0,30.22,North,-999,-999.0,-999.0,23,-99.99,,,-99.99,,2013-05-11 20:22:00,
2013-05-11 14:32:00,65.0,25.0,30.22,North,-999,-999.0,-999.0,22,-99.99,,,-99.99,,2013-05-11 20:32:00,
2013-05-11 14:42:00,65.0,25.0,30.22,North,-999,-999.0,-999.0,22,-99.99,,,-99.99,,2013-05-11 20:42:00,
2013-05-11 14:52:00,65.0,25.0,30.22,North,-999,-999.0,-999.0,22,-99.99,,,-99.99,,2013-05-11 20:52:00,
2013-05-11 15:01:00,65.0,25.0,30.22,North,-999,-999.0,-999.0,22,-99.99,,,-99.99,,2013-05-11 21:01:00,
2013-05-11 15:11:00,65.0,25.0,30.22,North,-999,-999.0,-999.0,22,-99.99,,,-99.99,,2013-05-11 21:11:00,
2013-05-11 15:21:00,65.0,24.0,30.22,North,-999,-999.0,-999.0,21,-99.99,,,-99.99,,2013-05-11 21:21:00,
2013-05-11 15:33:00,66.0,26.0,30.22,North,-999,-999.0,-999.0,22,-99.99,,,-99.99,,2013-05-11 21:33:00,
2013-05-11 15:43:00,66.0,26.0,30.22,North,-999,-999.0,-999.0,22,-99.99,,,-99.99,,2013-05-11 21:43:00,
2013-05-11 15:52:00,67.0,26.0,30.21,North,-999,-999.0,-999.0,21,-99.99,,,-99.99,,2013-05-11 21:52:00,
2013-05-11 16:02:00,66.0,25.0,30.21,North,-999,-999.0,-999.0,21,-99.99,,,-99.99,,2013-05-11 22:02:00,
2013-05-11 16:12:00,66.0,25.0,30.21,North,-999,-999.0,-999.0,21,-99.99,,,-99.99,,2013-05-11 22:12:00,
2013-05-11 16:22:00,65.0,23.0,30.21,North,-999,-999.0,-999.0,20,-99.99,,,-99.99,,2013-05-11 22:22:00,
2013-05-11 16:33:00,66.0,23.0,30.21,North,-999,-999.0,-999.0,19,-99.99,,,-99.99,,2013-05-11 22:33:00,
2013-05-11 16:42:00,66.0,23.0,30.21,North,-999,-999.0,-999.0,19,-99.99,,,-99.99,,2013-05-11 22:42:00,
2013-05-11 16:52:00,67.0,21.0,30.20,North,-999,-999.0,-999.0,17,-99.99,,,-99.99,,2013-05-11 22:52:00,
2013-05-11 17:02:00,66.0,20.0,30.20,North,-999,-999.0,-999.0,17,-99.99,,,-99.99,,2013-05-11 23:02:00,
2013-05-11 17:11:00,66.0,20.0,30.20,North,-999,-999.0,-999.0,17,-99.99,,,-99.99,,2013-05-11 23:11:00,
2013-05-11 17:22:00,66.0,21.0,30.20,North,-999,-999.0,-999.0,18,-99.99,,,-99.99,,2013-05-11 23:22:00,
2013-05-11 17:32:00,65.0,20.0,30.20,North,-999,-999.0,-999.0,18,-99.99,,,-99.99,,2013-05-11 23:32:00,
2013-05-11 17:42:00,65.0,20.0,30.20,North,-999,-999.0,-999.0,18,-99.99,,,-99.99,,2013-05-11 23:42:00,
2013-05-11 17:52:00,65.0,20.0,30.20,North,-999,-999.0,-999.0,18,-99.99,,,-99.99,,2013-05-11 23:52:00,
2013-05-11 18:01:00,65.0,22.0,30.19,North,-999,-999.0,-999.0,19,-99.99,,,-99.99,,2013-05-12 00:01:00,
2013-05-11 18:11:00,65.0,22.0,30.19,North,-999,-999.0,-999.0,19,-99.99,,,-99.99,,2013-05-12 00:11:00,
2013-05-11 18:21:00,66.0,23.0,30.19,North,-999,-999.0,-999.0,19,-99.99,,,-99.99,,2013-05-12 00:21:00,
2013-05-11 18:32:00,66.0,23.0,30.19,North,-999,-999.0,-999.0,19,-99.99,,,-99.99,,2013-05-12 00:32:00,
2013-05-11 18:42:00,66.0,23.0,30.19,North,-999,-999.0,-999.0,19,-99.99,,,-99.99,,2013-05-12 00:42:00,
2013-05-11 18:52:00,64.0,24.0,30.20,North,-999,-999.0,-999.0,22,-99.99,,,-99.99,,2013-05-12 00:52:00,
2013-05-11 19:01:00,63.0,24.0,30.19,North,-999,-999.0,-999.0,22,-99.99,,,-99.99,,2013-05-12 01:01:00,
2013-05-11 19:11:00,63.0,24.0,30.19,North,-999,-999.0,-999.0,22,-99.99,,,-99.99,,2013-05-12 01:11:00,
2013-05-11 19:21:00,62.0,24.0,30.19,North,-999,-999.0,-999.0,23,-99.99,,,-99.99,,2013-05-12 01:21:00,
2013-05-11 19:31:00,60.0,26.0,30.19,North,-999,-999.0,-999.0,27,-99.99,,,-99.99,,2013-05-12 01:31:00,
2013-05-11 19:41:00,60.0,26.0,30.19,North,-999,-999.0,-999.0,27,-99.99,,,-99.99,,2013-05-12 01:41:00,
2013-05-11 19:52:00,57.0,27.0,30.19,North,-999,-999.0,-999.0,32,-99.99,,,-99.99,,2013-05-12 01:52:00,
2013-05-11 20:01:00,56.0,27.0,30.18,North,-999,-999.0,-999.0,33,-99.99,,,-99.99,,2013-05-12 02:01:00,
2013-05-11 20:11:00,56.0,27.0,30.18,North,-999,-999.0,-999.0,33,-99.99,,,-99.99,,2013-05-12 02:11:00,
2013-05-11 20:22:00,57.0,28.0,30.18,North,-999,-999.0,-999.0,33,-99.99,,,-99.99,,2013-05-12 02:22:00,
2013-05-11 20:31:00,56.0,28.0,30.19,North,-999,-999.0,-999.0,34,-99.99,,,-99.99,,2013-05-12 02:31:00,
2013-05-11 20:42:00,56.0,28.0,30.19,North,-999,-999.0,-999.0,34,-99.99,,,-99.99,,2013-05-12 02:42:00,
2013-05-11 20:52:00,56.0,28.0,30.19,North,-999,-999.0,-999.0,34,-99.99,,,-99.99,,2013-05-12 02:52:00,
2013-05-11 21:01:00,56.0,27.0,30.18,North,-999,-999.0,-999.0,33,-99.99,,,-99.99,,2013-05-12 03:01:00,
2013-05-11 21:11:00,56.0,27.0,30.18,North,-999,-999.0,-999.0,33,-99.99,,,-99.99,,2013-05-12 03:11:00,
2013-05-11 21:22:00,55.0,28.0,30.19,North,-999,-999.0,-999.0,35,-99.99,,,-99.99,,2013-05-12 03:22:00,
2013-05-11 21:32:00,55.0,29.0,30.19,North,-999,-999.0,-999.0,36,-99.99,,,-99.99,,2013-05-12 03:32:00,
2013-05-11 21:42:00,55.0,29.0,30.19,North,-999,-999.0,-999.0,36,-99.99,,,-99.99,,2013-05-12 03:42:00,
2013-05-11 21:53:00,55.0,28.0,30.20,North,-999,-999.0,-999.0,35,-99.99,,,-99.99,,2013-05-12 03:53:00,
2013-05-11 22:12:00,54.0,28.0,30.20,North,-999,-999.0,-999.0,37,-99.99,,,-99.99,,2013-05-12 04:12:00,
2013-05-11 22:22:00,55.0,29.0,30.20,North,-999,-999.0,-999.0,36,-99.99,,,-99.99,,2013-05-12 04:22:00,
2013-05-11 22:33:00,54.0,28.0,30.20,North,-999,-999.0,-999.0,37,-99.99,,,-99.99,,2013-05-12 04:33:00,
2013-05-11 22:43:00,54.0,28.0,30.20,North,-999,-999.0,-999.0,37,-99.99,,,-99.99,,2013-05-12 04:43:00,
2013-05-11 22:52:00,53.0,28.0,30.20,North,-999,-999.0,-999.0,38,-99.99,,,-99.99,,2013-05-12 04:52:00,
2013-05-11 23:02:00,52.0,28.0,30.21,North,-999,-999.0,-999.0,40,-99.99,,,-99.99,,2013-05-12 05:02:00,
2013-05-11 23:11:00,52.0,28.0,30.21,North,-999,-999.0,-999.0,40,-99.99,,,-99.99,,2013-05-12 05:11:00,
2013-05-11 23:22:00,53.0,29.0,30.20,North,-999,-999.0,-999.0,39,-99.99,,,-99.99,,2013-05-12 05:22:00,
2013-05-11 23:31:00,53.0,28.0,30.20,North,-999,-999.0,-999.0,38,-99.99,,,-99.99,,2013-05-12 05:31:00,
2013-05-11 23:42:00,53.0,28.0,30.20,North,-999,-999.0,-999.0,38,-99.99,,,-99.99,,2013-05-12 05:42:00,
2013-05-11 23:52:00,53.0,29.0,30.20,North,-999,-999.0,-999.0,39,-99.99,,,-99.99,,2013-05-12 05:52:00,